This demonstration page uses our WeatherBlox Daily Observations layout. Learn more.

Left ArrowRight Arrow

36.19886, -115.1175

Hourly Observations for February 27, 2021

Temp ( °F °C ) Dew Point ( °F °C ) Humidity (%) Winds ( mph kmh ) Pressure ( in mb ) Visibility ( mi km ) Precip ( " mm )
12:53 am 00:53 Clear 56 13.3 8 -13.3 14 14 N 6 9 29.82 1010 10 16 N/A
1:53 am 01:53 Clear 56 13.3 8 -13.3 14 14 NW 23 37 29.81 1010 10 16 N/A
2:53 am 02:53 Clear 54 12.2 12 -11.1 19 19 NNW 18 30 29.83 1010 10 16 N/A
3:53 am 03:53 Clear 53 11.7 14 -10 21 21 NW 20 31 29.85 1011 10 16 N/A
4:53 am 04:53 Clear 50 10 14 -10 24 24 N 10 17 29.90 1013 10 16 N/A
5:53 am 05:53 Clear 50 10 14 -10 24 24 N 18 30 29.92 1013 10 16 N/A
6:53 am 06:53 Sunny 47 8.3 12 -11.1 24 24 NE 7 11 29.96 1015 10 16 N/A
7:53 am 07:53 Sunny 49 9.4 11 -11.7 21 21 E 7 11 30.00 1016 10 16 N/A
8:53 am 08:53 Sunny 51 10.6 9 -12.8 18 18 NNE 8 13 30.01 1016 10 16 N/A
9:53 am 09:53 Sunny 55 12.8 10 -12.2 16 16 N 18 30 30.01 1016 10 16 N/A
10:53 am 10:53 Sunny 57 13.9 10 -12.2 15 15 NNW 16 26 29.99 1016 10 16 N/A
11:53 am 11:53 Sunny 58 14.4 9 -12.8 14 14 N 16 26 29.97 1015 10 16 N/A
12:53 pm 12:53 Sunny 60 15.6 6 -14.4 11 11 N 18 30 29.93 1013 10 16 N/A
1:53 pm 13:53 Sunny 60 15.6 5 -15 11 11 N 18 30 29.91 1013 10 16 N/A
2:53 pm 14:53 Sunny 62 16.7 3 -16.1 9 9 NW 20 31 29.90 1013 10 16 N/A
3:53 pm 15:53 Sunny 60 15.6 -1 -18.3 8 8 NNW 26 43 29.91 1013 10 16 0.00 0.00
4:53 pm 16:53 Sunny 58 14.4 1 -17.2 10 10 NNW 13 20 29.96 1014 10 16 0.00 0.00
5:53 pm 17:53 Clear 56 13.3 3 -16.1 11 11 NNE 6 9 29.99 1016 10 16 N/A
6:53 pm 18:53 Clear 53 11.7 2 -16.7 12 12 S 3 6 30.04 1017 10 16 N/A
7:53 pm 19:53 Clear 52 11.1 N/A 11 11 NNE 10 17 30.07 1018 10 16 N/A
8:53 pm 20:53 Clear 51 10.6 3 -16.1 14 14 N 13 20 30.11 1020 10 16 N/A
9:53 pm 21:53 Clear 49 9.4 7 -13.9 18 18 NW 22 35 30.14 1021 10 16 N/A
10:53 pm 22:53 Clear 47 8.3 7 -13.9 19 19 NW 17 28 30.17 1022 10 16 N/A
11:53 pm 23:53 Clear 46 7.8 5 -15 18 18 NW 18 30 30.18 1022 10 16 N/A

Powered by AerisWeather